Location: Brede
(50.9167°N, 0.6000°E)
Time: 11:15:53
(UTC+00:00)

A-11 Canister half - Pass Details

Date: 28 November 2020
Orbit: 1524 x 1684 km, 47.3° (Epoch: 20 January)

Event Time Altitude Azimuth Distance (km) Brightness Sun altitude
Rises 05:07:51 0° 206° (SSW) 4,927 11.5 -22.3°
Reaches altitude 10° 05:11:26 10° 198° (SSW) 3,940 11.0 -21.7°
Maximum altitude 05:20:01 33° 139° (SE) 2,541 10.6 -20.4°
Drops below altitude 10° 05:28:29 10° 81° (E) 3,891 12.2 -19.1°
Sets 05:31:59 0° 72° (ENE) 4,859 12.7 -18.5°
